Wind_Speed
9 9 5 5 7 8 16 19 2 1 9 12 5 4 9 12 7 4 8 6 8 13 15 16 13 18 21 22 21 20 20 16 16 15 15 16 17 17 17 16 15 14 14 12 11 10 9 8 8
6 7 5 9 7 12 12 17 6 11 8 6 8 10 12 10 16 7 8 10 6 13 15 17 16 20 23 24 23 21 20 19 18 18 18 18 18 18 17 16 14 14 13 12 11 9 8 7 7
6 5 11 5 12 14 12 11 2 7 2 7 7 10 11 3 12 6 9 8 3 12 16 19 20 22 25 27 26 25 23 22 21 20 21 20 19 18 17 15 14 13 11 10 10 9 8 7 6
6 10 9 9 15 16 8 4 8 2 5 6 4 5 4 5 9 13 13 8 7 14 17 21 23 24 27 28 30 28 26 25 24 23 21 20 19 17 15 14 12 10 10 9 8 8 7 6 4
11 14 12 16 17 18 3 14 12 12 11 7 9 10 5 8 9 16 12 8 11 16 19 23 25 26 28 29 30 31 28 26 24 23 22 20 18 16 14 13 11 9 8 7 6 6 4 3 3
18 19 15 16 21 16 10 12 12 16 11 10 5 11 7 4 13 16 11 5 13 19 21 25 28 29 29 31 31 31 30 28 25 23 21 19 17 15 14 12 10 8 7 6 5 4 2 2 2
20 15 20 23 21 16 11 14 16 13 14 8 6 5 5 6 12 14 12 3 12 20 24 25 31 32 31 31 31 31 30 29 27 25 23 21 18 16 14 12 10 8 7 6 5 4 4 5 6
25 16 28 23 20 22 14 15 15 16 15 3 1 9 2 9 11 12 10 2 10 20 24 23 31 35 34 33 32 31 30 30 29 27 25 22 20 17 15 13 11 10 8 8 7 7 7 9 10
24 18 22 29 26 20 19 14 13 18 13 12 12 10 8 8 10 13 10 5 9 20 24 24 25 30 33 33 33 32 30 30 29 27 26 23 20 19 17 15 14 13 12 11 10 10 11 12 13
21 17 29 26 23 23 23 22 17 16 19 21 17 17 14 8 13 14 10 6 8 19 25 25 25 25 26 25 28 32 31 30 29 28 26 24 21 16 17 16 17 15 15 14 14 14 15 15 14
25 24 24 28 33 35 23 21 18 24 17 21 22 20 12 13 16 13 11 8 6 17 24 26 26 25 25 26 25 29 26 29 29 28 26 26 20 16 17 14 18 19 18 17 17 18 19 18 13
25 27 26 30 31 19 18 23 21 27 18 16 18 18 16 17 13 12 10 8 7 12 22 24 24 26 30 27 25 22 24 25 24 28 27 21 23 20 16 14 12 14 13 14 14 13 15 15 15
22 22 25 21 24 21 17 21 24 27 17 15 16 22 23 18 14 11 10 6 8 9 21 23 22 25 28 30 26 25 26 24 23 22 25 24 20 20 18 15 14 13 11 12 12 14 15 15 16
14 17 25 21 21 23 21 25 28 30 26 27 20 22 22 18 18 13 13 13 8 9 11 20 25 24 23 35 24 31 27 25 25 24 24 29 24 22 18 17 16 15 15 14 15 14 15 16 16
15 15 16 20 20 20 21 25 27 29 29 28 23 24 24 25 18 13 12 9 10 9 15 15 22 26 28 29 33 22 25 26 26 26 27 30 30 26 25 18 19 17 15 19 20 19 19 19 17
15 17 17 19 23 23 21 25 21 32 32 19 23 25 18 23 23 16 10 9 9 7 9 13 12 18 27 30 35 25 22 26 25 27 27 32 30 26 27 23 23 21 20 20 15 16 16 14 15
17 15 20 18 6 10 17 19 17 13 10 15 18 15 16 18 18 16 12 9 7 7 12 14 18 15 18 22 23 34 32 29 29 28 28 30 30 28 28 27 25 26 19 20 20 19 17 13 16
14 20 18 9 13 12 16 20 18 12 17 17 19 19 19 15 14 15 11 7 5 5 11 13 16 36 31 12 16 22 30 33 34 31 32 32 35 35 33 30 29 24 25 26 25 23 19 20 17
12 16 12 7 11 5 14 19 19 20 23 20 22 21 21 21 14 14 11 6 5 5 4 8 13 16 46 51 28 25 22 32 34 36 44 38 34 36 35 34 33 27 31 25 26 23 21 25 21
14 15 15 14 10 10 16 20 21 21 19 25 24 25 23 19 19 18 14 10 6 5 5 7 7 13 19 38 48 38 32 23 22 32 40 44 44 45 44 36 32 28 28 28 31 31 24 29 18
15 15 15 13 9 11 19 23 26 27 30 31 27 25 23 21 19 17 15 13 10 7 6 8 10 11 13 24 27 38 32 28 27 33 32 43 54 47 45 45 33 35 38 33 34 33 33 22 18
14 11 10 11 11 12 3 12 7 7 11 11 12 12 13 13 14 17 17 16 14 10 7 9 11 14 15 17 22 27 31 23 24 24 32 42 47 44 45 49 38 38 43 35 30 37 31 28 23
12 10 9 14 15 16 19 11 14 17 11 12 10 6 6 8 10 11 12 14 13 10 7 6 10 12 14 17 17 18 24 34 38 47 39 35 32 22 28 41 40 42 39 34 37 29 34 25 24
11 13 15 17 16 16 20 17 14 11 11 11 10 7 7 8 8 8 9 8 6 6 7 6 6 8 12 12 13 16 21 27 27 33 47 32 29 33 28 43 31 31 33 32 35 33 37 37 25
12 13 12 15 14 15 9 5 11 2 5 2 3 6 7 9 8 10 10 9 7 7 7 7 9 9 9 12 13 15 20 21 26 34 31 26 28 27 34 38 30 33 30 30 29 31 32 33 30
16 16 13 17 13 11 14 7 3 6 9 2 7 9 9 9 10 8 9 9 10 10 11 13 13 14 13 14 14 16 19 17 18 20 26 30 25 27 30 33 30 26 24 25 26 27 30 27 27
18 15 13 16 19 15 18 21 12 13 11 8 9 4 6 9 10 9 9 10 13 13 15 16 18 18 19 19 19 20 22 22 21 23 25 23 33 30 29 27 36 28 22 26 25 28 26 24 23
17 12 6 9 16 19 17 20 14 15 17 11 4 4 7 6 8 10 13 16 20 22 22 21 21 23 22 23 22 20 20 22 24 25 28 29 27 28 34 33 36 35 30 29 28 26 26 24 22
15 17 18 16 11 6 12 9 10 7 1 3 1 6 7 10 16 21 21 22 24 25 26 26 25 24 24 22 21 21 20 20 23 25 26 29 29 26 25 30 30 32 31 30 31 28 21 22 22
18 17 18 12 20 16 16 18 13 2 6 4 6 12 17 17 19 20 18 23 24 24 25 27 29 27 25 22 23 23 23 24 25 26 27 29 28 27 26 30 31 29 30 31 33 29 22 23 19
Wind_Direction
336 330 315 257 236 233 246 237 265 69 257 277 27 232 287 325 348 44 99 54 121 164 172 160 170 168 162 162 164 169 173 170 168 159 150 148 145 143 145 145 146 143 140 137 130 125 118 114 107
342 312 291 272 245 238 240 247 157 249 57 8 277 242 253 259 41 52 44 36 130 182 184 168 168 172 164 163 164 168 171 169 168 160 153 151 148 145 148 146 146 143 137 133 127 123 116 110 107
322 279 279 237 239 246 240 4 285 117 49 238 246 229 263 360 35 7 338 355 130 182 194 177 166 175 167 166 165 168 172 171 168 163 157 156 154 153 153 151 150 146 139 137 133 130 123 111 111
264 241 241 245 254 243 285 96 5 238 198 219 306 260 188 57 360 331 311 279 232 199 189 179 170 176 170 171 168 171 173 171 169 165 163 162 161 160 158 157 155 150 149 146 140 135 130 125 122
247 260 258 241 237 253 191 274 264 288 270 254 206 240 216 125 346 332 315 280 210 202 190 190 178 177 174 175 176 176 176 176 174 172 170 168 168 166 168 167 163 163 162 157 153 147 148 148 145
239 237 253 243 239 225 235 242 249 254 270 259 211 231 242 73 345 339 327 286 212 202 191 205 181 175 181 179 181 181 181 180 181 180 179 178 176 176 179 179 177 181 182 180 181 176 209 240 230
244 246 240 256 256 230 209 218 244 245 259 242 247 251 193 52 346 342 341 302 206 199 189 206 184 178 185 185 187 187 188 187 186 187 187 186 187 186 189 193 196 201 206 210 217 233 253 266 267
239 247 256 249 247 255 200 205 220 250 252 313 200 240 257 12 336 341 340 309 204 194 190 192 189 185 186 190 193 194 195 194 194 192 192 194 195 198 200 204 212 220 228 236 242 250 263 271 273
230 245 246 244 249 246 250 214 215 242 256 253 243 267 295 303 322 338 333 337 195 195 192 193 189 190 187 195 197 198 201 201 200 200 199 199 204 208 213 215 222 229 239 245 249 252 258 262 267
228 236 243 253 255 255 249 243 182 220 236 241 250 245 263 270 316 320 322 321 211 201 196 195 193 191 188 190 202 202 205 208 207 207 207 206 208 219 220 231 234 239 243 250 256 257 258 262 266
221 241 252 245 252 263 279 256 203 200 221 252 263 260 273 278 298 303 305 294 310 207 202 198 198 193 189 189 200 206 206 211 213 212 212 211 214 213 229 225 245 239 243 254 262 265 263 264 260
231 244 249 260 264 261 256 282 276 267 238 225 247 274 273 271 283 295 302 297 268 221 207 201 205 199 190 194 200 200 200 209 210 216 217 213 209 216 213 223 236 263 241 262 242 261 282 270 254
239 245 258 252 267 266 253 255 265 266 269 251 245 257 259 257 260 272 275 283 263 270 206 211 211 214 205 194 205 199 202 210 209 215 219 211 216 218 228 217 225 232 240 244 258 242 244 259 259
229 256 253 242 248 245 252 252 255 252 252 256 253 253 250 244 258 258 253 264 246 221 210 216 215 219 221 202 198 206 201 209 209 212 218 230 215 223 226 236 230 231 237 235 239 251 246 257 257
263 262 258 256 246 246 251 256 251 256 252 248 244 251 253 252 244 244 245 240 238 254 215 195 213 228 225 220 205 212 204 201 213 210 219 232 228 225 237 233 242 241 238 248 236 241 258 258 256
246 244 254 243 225 230 233 256 256 248 239 237 250 249 252 257 234 236 223 228 232 230 246 202 190 223 234 228 224 212 210 218 218 224 219 234 240 232 240 245 246 238 245 251 248 252 286 251 257
223 252 232 243 160 244 213 251 260 203 224 239 248 244 250 255 238 226 219 215 205 242 229 221 212 205 224 253 247 233 228 223 224 216 224 233 242 248 243 249 248 255 245 254 246 261 273 256 266
251 219 242 251 172 209 248 247 257 201 224 244 245 246 251 237 235 226 210 207 226 211 226 232 234 224 238 244 259 237 237 232 239 240 249 252 246 246 255 247 251 259 258 252 255 263 265 284 265
318 289 289 251 233 242 268 270 265 253 243 242 247 246 242 245 236 231 224 220 221 249 232 248 238 234 220 241 250 242 247 233 233 236 236 238 239 251 253 242 251 250 261 253 264 261 260 272 269
262 263 256 260 258 261 273 269 268 263 257 254 252 247 245 242 243 238 242 247 232 218 238 242 252 232 220 225 235 251 255 243 253 256 253 252 250 250 252 251 255 274 261 255 266 266 252 268 246
247 259 267 279 292 286 265 261 256 246 245 245 245 248 246 245 233 237 229 231 245 239 220 236 234 253 226 213 218 229 226 227 244 251 256 250 255 249 249 254 254 260 268 255 265 267 260 244 241
267 269 245 274 266 266 239 283 255 207 213 209 222 224 233 232 221 229 237 228 238 239 254 237 235 236 251 244 231 235 252 235 230 230 260 255 246 249 250 248 240 244 250 254 246 265 257 255 232
276 303 267 269 268 276 261 253 266 244 218 187 192 201 224 225 230 222 229 242 243 234 225 262 265 246 253 246 243 238 241 246 235 240 240 239 240 249 273 264 231 240 238 236 255 242 256 243 238
287 271 259 254 252 253 253 246 247 231 197 183 145 207 227 231 228 231 214 211 215 229 243 247 245 279 274 265 251 242 223 223 224 240 242 235 237 243 236 251 241 238 239 248 241 242 249 255 233
233 256 261 248 220 242 219 228 258 348 99 79 263 286 255 245 243 226 216 223 224 257 255 260 263 265 260 272 264 260 255 240 233 236 245 261 244 239 226 252 241 237 241 241 235 242 243 245 233
243 257 263 285 283 284 160 227 241 243 135 184 258 269 260 240 238 224 244 244 253 263 274 280 281 280 278 275 274 262 260 260 254 258 252 236 239 238 234 246 251 247 243 245 242 239 240 235 243
254 246 269 287 282 284 282 294 265 171 193 210 240 246 270 237 231 251 258 256 274 285 289 288 291 289 284 279 276 277 276 272 259 251 249 256 236 232 242 239 248 250 244 246 245 241 233 224 242
253 257 250 244 254 254 251 250 260 169 181 183 219 265 270 262 260 277 269 273 277 277 279 273 274 284 283 278 278 276 270 265 268 262 260 252 247 246 229 230 240 254 254 249 240 232 217 232 232
223 237 243 259 204 267 278 267 80 107 360 40 204 269 288 286 279 282 287 288 285 281 280 279 272 269 271 273 270 275 274 264 262 260 259 260 259 251 248 247 245 247 243 237 234 218 215 234 229
248 217 244 263 238 256 268 264 292 89 317 88 306 251 264 285 285 283 284 294 293 288 281 278 276 269 266 262 265 270 275 275 262 260 256 256 261 261 247 238 227 235 235 228 224 216 210 214 220
Height
1507 1506 1506 1505 1501 1487 1476 1462 1450 1462 1466 1462 1465 1467 1464 1459 1460 1478 1484 1486 1487 1488 1487 1490 1495 1499 1501 1505 1508 1512 1515 1518 1521 1522 1523 1525 1526 1528 1529 1531 1533 1534 1535 1537 1537 1538 1539 1540 1540
1506 1507 1506 1499 1496 1487 1476 1450 1462 1464 1466 1472 1474 1475 1472 1468 1469 1477 1481 1487 1489 1488 1488 1491 1496 1499 1501 1505 1509 1513 1516 1519 1521 1523 1525 1527 1529 1530 1532 1534 1536 1537 1537 1539 1539 1540 1541 1541 1542
1506 1508 1504 1493 1487 1484 1474 1459 1461 1464 1477 1478 1475 1474 1470 1469 1478 1484 1487 1489 1491 1489 1488 1492 1495 1500 1502 1503 1509 1513 1517 1520 1522 1524 1526 1528 1530 1532 1534 1536 1537 1538 1539 1540 1541 1542 1542 1542 1543
1508 1506 1502 1497 1488 1474 1474 1472 1474 1471 1477 1480 1475 1475 1476 1479 1483 1485 1486 1487 1491 1490 1490 1492 1496 1501 1503 1505 1507 1513 1517 1520 1522 1525 1527 1530 1532 1535 1536 1538 1539 1540 1541 1542 1542 1542 1543 1544 1544
1506 1501 1490 1485 1479 1474 1479 1480 1481 1478 1475 1476 1476 1474 1477 1480 1485 1486 1485 1485 1488 1491 1492 1491 1496 1501 1505 1507 1508 1511 1516 1521 1524 1527 1529 1531 1534 1536 1538 1539 1540 1542 1542 1543 1543 1544 1544 1544 1544
1499 1494 1489 1482 1472 1468 1479 1482 1481 1478 1475 1474 1476 1474 1478 1480 1485 1485 1483 1482 1484 1488 1491 1491 1495 1499 1505 1508 1510 1512 1515 1520 1525 1528 1531 1533 1535 1537 1539 1541 1541 1542 1543 1543 1544 1543 1544 1544 1544
1495 1486 1480 1474 1465 1461 1469 1479 1481 1478 1475 1475 1474 1474 1474 1479 1485 1484 1481 1480 1482 1485 1488 1490 1494 1497 1504 1509 1511 1513 1516 1519 1522 1527 1530 1533 1536 1537 1539 1541 1542 1543 1544 1544 1544 1543 1543 1544 1544
1491 1485 1476 1464 1466 1462 1460 1472 1479 1480 1477 1476 1482 1479 1474 1481 1485 1483 1481 1480 1481 1484 1487 1490 1491 1495 1501 1506 1510 1514 1516 1519 1522 1525 1529 1532 1535 1538 1539 1540 1542 1543 1543 1544 1544 1544 1544 1544 1544
1487 1481 1471 1465 1461 1458 1458 1462 1477 1481 1479 1479 1479 1480 1480 1484 1484 1482 1481 1480 1479 1483 1487 1491 1493 1494 1499 1504 1508 1513 1516 1519 1522 1526 1528 1532 1534 1537 1538 1540 1541 1542 1543 1543 1543 1544 1543 1543 1542
1479 1473 1466 1462 1456 1453 1453 1457 1465 1479 1479 1478 1478 1480 1480 1482 1482 1482 1481 1479 1480 1482 1486 1489 1493 1496 1500 1505 1507 1511 1515 1519 1521 1524 1527 1530 1533 1536 1538 1539 1540 1541 1541 1542 1542 1542 1542 1542 1541
1473 1467 1462 1458 1458 1454 1452 1450 1459 1468 1475 1477 1475 1475 1475 1480 1482 1480 1479 1481 1480 1482 1485 1488 1491 1495 1499 1505 1506 1509 1513 1517 1520 1523 1526 1528 1532 1535 1536 1539 1537 1538 1538 1538 1538 1539 1538 1539 1539
1467 1464 1462 1461 1456 1456 1456 1460 1458 1460 1460 1472 1478 1479 1478 1479 1479 1479 1478 1483 1483 1482 1484 1488 1488 1493 1496 1503 1505 1507 1512 1514 1518 1521 1524 1527 1529 1532 1535 1537 1539 1536 1537 1536 1537 1538 1536 1535 1536
1463 1461 1461 1460 1461 1460 1462 1465 1464 1462 1464 1468 1474 1476 1475 1475 1476 1478 1479 1481 1482 1481 1483 1486 1489 1492 1494 1499 1502 1505 1508 1513 1516 1520 1521 1524 1527 1530 1531 1534 1536 1537 1536 1536 1535 1535 1537 1535 1533
1462 1463 1463 1459 1464 1463 1464 1464 1464 1461 1465 1465 1466 1470 1470 1469 1472 1473 1476 1478 1480 1481 1482 1484 1487 1490 1491 1495 1499 1502 1504 1510 1514 1518 1519 1518 1521 1526 1528 1528 1531 1533 1533 1533 1532 1531 1531 1531 1529
1468 1467 1463 1458 1460 1460 1464 1458 1454 1457 1457 1457 1459 1462 1464 1464 1466 1469 1471 1474 1477 1476 1478 1479 1483 1486 1488 1492 1496 1500 1502 1505 1509 1513 1515 1514 1516 1519 1521 1525 1525 1527 1528 1528 1528 1526 1526 1526 1526
1468 1463 1460 1446 1449 1454 1460 1451 1445 1445 1446 1451 1457 1457 1458 1460 1461 1465 1467 1472 1474 1473 1472 1476 1477 1481 1485 1488 1492 1494 1498 1503 1506 1507 1509 1509 1511 1515 1516 1519 1520 1522 1524 1524 1521 1521 1521 1522 1522
1457 1457 1447 1440 1442 1451 1452 1450 1440 1442 1449 1452 1454 1454 1457 1458 1458 1461 1464 1468 1468 1470 1468 1470 1473 1479 1480 1482 1486 1489 1493 1498 1501 1502 1506 1506 1506 1509 1511 1512 1514 1515 1517 1518 1517 1517 1517 1518 1518
1443 1442 1441 1439 1440 1450 1448 1444 1441 1441 1447 1449 1450 1451 1453 1456 1457 1460 1461 1462 1466 1465 1463 1465 1467 1469 1474 1479 1483 1486 1490 1492 1493 1496 1497 1502 1503 1505 1505 1506 1508 1510 1512 1511 1511 1512 1513 1513 1515
1450 1446 1440 1436 1438 1449 1449 1443 1437 1436 1438 1441 1443 1445 1448 1451 1455 1458 1458 1460 1462 1463 1460 1463 1464 1464 1467 1474 1479 1487 1482 1487 1485 1490 1494 1496 1497 1498 1500 1499 1502 1505 1508 1506 1508 1508 1508 1509 1510
1457 1453 1448 1442 1440 1449 1448 1443 1438 1435 1433 1435 1437 1438 1441 1445 1449 1452 1454 1457 1458 1459 1457 1459 1459 1463 1464 1470 1476 1475 1484 1478 1476 1484 1489 1491 1492 1492 1492 1495 1497 1501 1503 1503 1503 1503 1503 1503 1505
1454 1452 1447 1445 1443 1446 1448 1441 1430 1423 1426 1428 1429 1432 1435 1437 1443 1447 1451 1454 1456 1452 1453 1454 1455 1461 1465 1467 1469 1477 1478 1471 1463 1478 1479 1484 1487 1487 1486 1486 1491 1491 1496 1497 1497 1497 1497 1499 1502
1453 1442 1445 1452 1456 1450 1433 1441 1416 1415 1420 1422 1425 1429 1431 1435 1441 1446 1449 1453 1453 1451 1447 1448 1453 1455 1459 1462 1465 1465 1461 1460 1464 1470 1478 1483 1482 1482 1476 1476 1481 1482 1487 1490 1493 1490 1490 1493 1496
1450 1444 1452 1451 1450 1447 1438 1437 1418 1406 1408 1415 1422 1427 1431 1434 1437 1440 1445 1447 1448 1448 1447 1445 1448 1452 1458 1455 1455 1454 1454 1456 1459 1464 1474 1473 1472 1461 1473 1473 1471 1472 1480 1484 1484 1485 1483 1487 1489
1449 1448 1450 1446 1443 1444 1426 1425 1410 1401 1405 1410 1420 1426 1428 1431 1433 1436 1441 1443 1443 1445 1446 1448 1450 1448 1451 1451 1453 1450 1453 1458 1457 1461 1452 1454 1453 1453 1463 1473 1464 1466 1471 1473 1476 1479 1479 1480 1484
1447 1451 1449 1439 1433 1426 1405 1416 1406 1404 1409 1413 1419 1423 1426 1428 1431 1433 1435 1438 1441 1443 1444 1447 1449 1449 1452 1453 1451 1448 1453 1452 1450 1452 1452 1449 1450 1450 1463 1459 1458 1458 1462 1466 1468 1470 1473 1473 1476
1443 1443 1440 1442 1423 1410 1406 1418 1401 1401 1406 1419 1423 1424 1425 1426 1429 1432 1434 1436 1438 1440 1441 1443 1443 1443 1443 1444 1443 1444 1447 1445 1446 1445 1446 1447 1447 1449 1452 1448 1451 1454 1456 1458 1461 1465 1465 1468 1470
1440 1441 1434 1441 1428 1427 1412 1401 1399 1403 1411 1417 1418 1422 1423 1424 1427 1429 1431 1434 1435 1435 1437 1437 1436 1436 1436 1436 1434 1434 1435 1436 1435 1437 1440 1441 1441 1444 1447 1445 1446 1448 1450 1453 1455 1457 1459 1462 1465
1438 1436 1454 1442 1449 1443 1416 1402 1392 1392 1401 1407 1415 1418 1420 1422 1424 1427 1429 1430 1431 1432 1433 1434 1433 1431 1430 1430 1429 1429 1428 1428 1428 1431 1432 1433 1435 1435 1439 1440 1440 1440 1443 1447 1450 1451 1455 1457 1460
1433 1438 1434 1433 1444 1445 1423 1407 1389 1407 1400 1404 1413 1418 1420 1422 1424 1424 1424 1426 1426 1426 1425 1425 1426 1426 1425 1423 1423 1423 1422 1422 1424 1425 1426 1427 1426 1426 1429 1431 1431 1434 1436 1439 1442 1446 1449 1451 1455
1421 1424 1434 1435 1436 1421 1414 1402 1383 1405 1402 1405 1413 1417 1416 1415 1418 1419 1421 1422 1421 1421 1421 1418 1417 1417 1417 1418 1417 1416 1415 1415 1417 1417 1417 1419 1419 1420 1422 1424 1426 1429 1430 1433 1436 1439 1444 1447 1449